Location: Cerezo de Arriba
(41.2389°N, 3.5585°W)
Time: 03:19:08
(UTC+00:00)

Cosmos 773 Rocket - Pass Details

Date: 19 May 2025
Orbit: 742 x 772 km, 74.1° (Epoch: 22 June)

Event Time Altitude Azimuth Distance (km) Brightness Sun altitude
Exits shadow 21:51:34 40° 178° (S) 1,083 4.4 -20.8°
Maximum altitude 21:53:20 71° 107° (ESE) 789 3.8 -21.0°
Drops below altitude 10° 21:58:26 10° 24° (NNE) 2,263 6.8 -21.5°
Sets 22:00:48 0° 22° (NNE) 3,189 7.7 -21.8°
